2026-027G

Last updated on Sun Mar 15 2026 00:02:06 GMT+0000 (Coordinated Universal Time)

1 67752U 26027G 26073.61039768 .00009819 00000+0 57064-3 0 9993 2 67752 97.4912 202.5103 0012237 209.3962 150.6582 15.12231767 4602
UTC large
Height (km)
Speed (km/s)
/
Latitude / Longitude
Inclination (degrees)
Orbital Period (minutes)
Azimuth
Elevation
Range (km)
Doppler Factor

Next 0 passes for location: London (51.5072 / 0.1276)

Sorry there are no passes over London.